This is the latest recevied weather packets stored in our database for station/object KD2RHT-13. If no packets are shown the sender has not sent any weather packets the latest 10 day(s).
| Time | Temp. | Humidity | Pressure | Rain* | Wind** | Luminosity | Snow |
|---|---|---|---|---|---|---|---|
| 1777374621 | 14.44° C | 68% | 1018.3 hPa | 0 mm | - | 59 W/m² | - |
| 1777374318 | 13.89° C | 71% | 1018.3 hPa | 0 mm | - | 49 W/m² | - |
| 1777374014 | 13.33° C | 72% | 1018.3 hPa | 0 mm | - | 42 W/m² | - |
| 1777373711 | 12.78° C | 72% | 1018.6 hPa | 0 mm | - | 35 W/m² | - |
| 1777373409 | 12.78° C | 72% | 1018.6 hPa | 0 mm | - | 30 W/m² | - |
| 1777373103 | 12.78° C | 72% | 1018.6 hPa | 0 mm | - | 26 W/m² | - |
| 1777372799 | 12.78° C | 72% | 1018.6 hPa | 0 mm | - | 23 W/m² | - |
| 1777372493 | 12.78° C | 72% | 1018.6 hPa | 0 mm | - | 19 W/m² | - |
| 1777372191 | 12.78° C | 73% | 1018.3 hPa | 0 mm | - | 17 W/m² | - |
| 1777371886 | 12.78° C | 72% | 1018.3 hPa | 0 mm | - | 15 W/m² | - |
| 1777371583 | 12.78° C | 72% | 1018.3 hPa | 0 mm | - | 11 W/m² | - |
| 1777371279 | 12.78° C | 70% | 1018.3 hPa | 0 mm | - | 8 W/m² | - |
| 1777370977 | 12.78° C | 70% | 1017.9 hPa | 0 mm | - | 5 W/m² | - |
| 1777370671 | 12.78° C | 71% | 1018.3 hPa | 0 mm | - | 2 W/m² | - |
| 1777370369 | 12.78° C | 70% | 1017.9 hPa | 0 mm | - | 0 W/m² | - |
| 1777370064 | 12.78° C | 70% | 1018.3 hPa | 0 mm | - | 0 W/m² | - |
| 1777369762 | 13.33° C | 69% | 1018.3 hPa | 0 mm | - | 0 W/m² | - |
| 1777369461 | 13.33° C | 68% | 1018.3 hPa | 0 mm | - | 0 W/m² | - |
| 1777369157 | 13.33° C | 68% | 1018.3 hPa | 0 mm | - | 0 W/m² | - |
| 1777368856 | 13.33° C | 69% | 1018.3 hPa | 0 mm | - | 0 W/m² | - |
| 1777368555 | 12.78° C | 68% | 1018.6 hPa | 0 mm | - | 0 W/m² | - |
| 1777368252 | 13.33° C | 68% | 1018.6 hPa | 0 mm | - | 0 W/m² | - |
| 1777367949 | 13.89° C | 67% | 1018.9 hPa | 0 mm | - | 0 W/m² | - |
| 1777367646 | 13.89° C | 65% | 1018.9 hPa | 0 mm | - | 0 W/m² | - |
| 1777367342 | 13.89° C | 65% | 1018.6 hPa | 0 mm | - | 0 W/m² | - |
* Rain latest hour (hover to see other rain measurements)
** Current wind speed in m/s (hover to see current wind gust speed)